Location: Zagreb
(45.8000°N, 16.0000°E)
Time: 20:10:19
(UTC+01:00)

DX 1 - Pass Details

Date: 05 November 2020
Orbit: 619 x 630 km, 98.5° (Epoch: 01 December)

Event Time Altitude Azimuth Distance (km) Brightness Sun altitude
Rises 04:36:15 0° 139° (SE) 2,886 ? -22.2°
Reaches altitude 10° 04:38:35 10° 129° (SE) 1,984 ? -21.8°
Maximum altitude 04:42:24 32° 67° (ENE) 1,078 ? -21.2°
Drops below altitude 10° 04:46:15 10° 5° (N) 1,996 ? -20.5°
Sets 04:48:36 0° 355° (N) 2,908 ? -20.1°
